Tracking 32991 objects as of 22-Jan-2026
HD Live streaming from Space Station
objects crossing your sky now

DELTA 1 R/B(1)

Track DELTA 1 R/B(1) now!
10-day predictions


NORAD ID: 15392
Int'l Code: 1984-115B
Perigee: 676.9 km
Apogee: 2,299.2 km
Inclination: 21.5 °
Period: 115.6 minutes
Semi major axis: 7859 km
RCS: 10.0127 m2 (large)
Launch date: November 14, 1984
Source: United States (US)
Launch site: AIR FORCE EASTERN TEST RANGE (AFETR)

Note: This is a ROCKET BODY
Your satellite tracking list
Your tracking list is empty




NASA's NSSDC Master Catalog

Two Line Element Set (TLE):
1 15392U 84115B   26022.25382544  .00000237  00000-0  71896-4 0  9991
2 15392  21.4939 354.5824 1032141 144.3182 223.0823 12.46088629858216
Source of the keplerian elements: AFSPC